#timestamp,LO_Frequency,Hit,StdDev 
1544763615.7,286047001.9,P
1544763635.5,286047002.1,P
1544763655.3,286047002.5,P
1544763675.2,286047003.0,Y
1544763695.0,286047002.8,P
1544763695.9,286047002.8,P
1544763715.8,286046999.9,N
1544763735.6,286046999.8,N
1544763755.4,286047001.1,N
1544763775.3,286047000.2,N
1544763795.1,286046999.7,N
1544763815.8,286047002.1,N
1544763835.7,286047001.0,N
1544763855.5,286047000.4,N
1544763875.4,286047000.8,N
1544763895.2,286047000.3,N
1544763915.0,286047001.7,N
1544763915.9,286047001.7,N
1544763935.8,286047002.8,N
1544763955.6,286047001.8,N
1544763975.4,286046999.8,N
1544763995.3,286047002.6,N
1544764015.1,286047001.5,N
1544764035.9,286047001.5,N
1544764055.7,286047002.7,N
1544764075.5,286047001.7,N
1544764095.4,286047004.4,Y
1544764115.2,286047002.8,P
1544764135.0,286046999.7,N
1544764136.0,286047011.9,P
1544764155.8,286047000.2,N
1544764175.6,286047000.6,N
1544764195.5,286047002.6,N
1544764215.3,286046998.1,N
1544764235.1,286046999.1,N
1544764255.9,286046997.0,N
1544764275.7,286046994.9,N
1544764295.6,286046995.6,N
1544764315.4,286046995.6,N
1544764335.2,286046995.7,N
1544764355.1,286046993.7,N
1544764356.0,286046993.7,N
1544764375.8,286046994.1,N
1544764395.6,286046992.3,N
1544764415.5,286046993.1,N
1544764435.3,286046992.6,N
1544764455.2,286046990.3,N
1544764475.9,286046991.3,N
1544764495.7,286046990.3,N
1544764515.6,286046993.2,N
1544764535.4,286046991.0,N
1544764555.2,286046991.4,N
1544764575.1,286046989.3,N
1544764576.0,286046989.3,N
1544764595.8,286046991.6,N
1544764615.7,286046989.7,N
1544764635.5,286046987.5,N
1544764655.3,286046989.4,N
1544764675.2,286046990.0,N
1544764695.0,286046989.1,N
1544764695.9,286046989.1,N
1544764715.8,286046992.4,N
1544764735.6,286046991.1,N
1544764755.4,286046991.5,N
1544764775.3,286046992.8,N
1544764795.1,286046991.3,Y
1544764815.8,286046998.4,P
1544764835.7,286046996.8,N
1544764855.5,286046997.8,N
1544764875.4,286046995.8,N
1544764895.2,286046995.8,N
1544764915.0,286046994.7,N
1544764915.9,286046994.7,N
1544764935.8,286046993.7,Y
1544764955.6,286046998.5,P
1544764975.5,286047000.6,N
1544764995.3,286047000.5,N
1544765015.1,286047000.9,N
1544765035.9,286046998.6,N
1544765055.7,286046999.6,N
1544765075.6,286046997.7,N
1544765095.4,286046999.5,N
1544765115.2,286047001.2,N
1544765135.1,286046999.5,N
1544765136.0,286046999.5,N
1544765155.8,286046999.0,N
1544765175.6,286046998.8,N
1544765195.5,286046999.4,N
1544765215.3,286046998.6,N
1544765235.2,286047000.5,N
1544765255.9,286047001.1,N
1544765275.7,286046999.0,N
1544765295.6,286046996.9,N
1544765315.4,286046998.7,N
1544765335.2,286047000.6,N
1544765355.1,286047000.6,N
1544765356.0,286047000.6,N
1544765375.8,286047000.8,N
1544765395.7,286046998.1,N
1544765415.5,286046999.1,N
1544765435.3,286046998.6,N
1544765455.2,286046998.3,N
1544765475.0,286046998.3,N
1544765475.9,286046998.3,N
1544765495.8,286046999.1,N
1544765515.6,286046997.6,N
1544765535.4,286046997.7,N
1544765555.3,286046998.8,N
1544765575.1,286046999.3,N
1544765595.8,286046999.5,N
1544765615.7,286046997.0,N
1544765635.5,286046996.7,N
1544765655.4,286046997.4,N
1544765675.2,286046997.1,N
1544765695.0,286046996.8,N
1544765695.9,286046996.8,N
1544765715.8,286046997.3,N
1544765735.6,286046997.6,N
1544765755.4,286046994.9,Y
1544765775.3,286046996.8,P
1544765795.1,286046995.8,P
1544765815.9,286046995.4,P
1544765835.7,286046997.5,N
1544765855.5,286046997.2,N
1544765875.4,286046999.6,N
1544765895.2,286046998.6,N
1544765915.1,286047000.6,N
1544765916.0,286047000.6,N
1544765935.8,286046998.9,N
1544765955.6,286046999.5,N
1544765975.5,286046998.7,N
1544765995.3,286047000.7,N
1544766015.1,286046998.4,N
1544766035.9,286046998.5,N
1544766055.7,286047000.8,N
1544766075.6,286046998.1,N
1544766095.4,286047000.8,N
1544766115.2,286047000.2,N
1544766135.1,286047000.9,N
1544766136.0,286047000.9,N
1544766155.8,286046999.8,N
1544766175.6,286047000.4,N
1544766195.5,286047000.3,N
1544766215.3,286047000.7,N
1544766235.2,286047000.2,N
1544766255.9,286047000.3,N
1544766275.7,286047001.0,N
1544766295.6,286047000.0,N
1544766315.4,286047000.1,N
1544766335.2,286047002.8,N
1544766355.1,286046999.7,N
1544766356.0,286046999.7,N
1544766375.8,286047001.0,N
1544766395.7,286047000.6,N
1544766415.5,286047004.1,Y
1544766435.3,286047003.2,P
1544766455.2,286047003.9,N
1544766475.0,286047003.7,N
1544766475.9,286047003.7,N
1544766495.8,286047001.4,N
1544766515.6,286047003.5,N
1544766535.4,286047004.4,Y
1544766555.3,286047001.2,P
1544766575.1,286047000.7,N
1544766595.8,286047000.0,N
1544766615.7,286047000.6,N
1544766635.5,286047002.3,N
1544766655.4,286047001.8,N
1544766675.2,286047001.3,N
1544766695.0,286047003.0,Y
1544766695.9,286047003.0,P
1544766715.8,286047004.0,P
1544766735.6,286047001.9,N
1544766755.5,286047002.0,N
1544766775.3,286047002.4,N
1544766795.1,286047004.3,Y
1544766815.9,286047002.7,P
1544766835.7,286047002.8,P
1544766855.5,286046999.8,N
1544766875.4,286047002.6,N
1544766895.2,286047002.3,N
1544766915.1,286047002.2,N
1544766916.0,286047002.2,N
1544766935.8,286046999.8,N
1544766955.6,286047001.1,N
1544766975.5,286047002.5,N
1544766995.3,286047000.2,N
1544767015.1,286047001.5,N
1544767035.9,286047002.3,N
1544767055.7,286046999.7,N
1544767075.6,286046999.9,N
1544767095.4,286047002.7,N
1544767115.2,286047000.2,N
1544767135.1,286047002.2,N
1544767136.0,286047002.2,N
1544767155.8,286047003.9,Y
1544767175.7,286047000.0,P
1544767195.5,286046999.9,N
